Theta_e
293 295 295 297 296 296 297 297 296 295 297 297 296 297 296 296 295 294 295 293 295 295 295 298 300 302 303 303 303 303 304 308 309 310 312 313 316 319 320 323 325 326 327 328 329 329 330 331 332 333 334 336 337 338 339 340 341 342 345 346 347 347 347 348 348 350 350 351 352 352 352 353 353 353 353 354 354 354 354 353 353 352 352 350 349 349 349
292 294 295 297 296 295 296 296 296 297 297 297 298 298 297 297 298 299 297 294 296 297 298 298 300 302 303 303 305 306 305 304 307 308 308 310 313 316 319 321 324 326 327 329 329 330 331 331 332 333 334 335 336 337 338 339 341 343 345 346 346 347 347 348 349 350 351 352 352 352 352 352 352 353 353 354 354 353 353 353 353 353 352 351 350 348 348
290 293 296 296 295 294 294 296 296 296 297 298 299 298 298 298 297 298 295 295 297 299 299 302 303 304 306 308 307 304 304 304 306 308 308 310 312 315 318 321 323 326 327 328 329 330 331 332 332 333 334 335 337 338 339 340 341 343 345 346 346 347 347 348 350 351 351 352 352 352 352 352 353 353 353 354 354 353 353 353 353 353 353 351 350 349 348
287 292 293 293 295 295 294 294 295 295 295 295 297 297 298 297 296 296 296 294 295 299 300 301 302 301 303 304 304 306 306 309 311 309 310 311 313 315 318 321 323 325 326 327 329 330 331 332 333 334 335 335 337 337 339 340 342 344 345 345 346 347 348 349 350 350 351 352 352 352 353 352 353 353 353 353 353 353 353 353 353 353 352 351 350 350 348
284 291 292 292 293 293 292 294 297 297 297 297 298 299 300 301 300 297 295 297 300 301 303 301 302 302 301 301 302 307 308 309 311 312 312 313 314 318 321 322 324 324 325 327 329 331 332 333 333 334 336 336 337 338 340 341 343 344 344 345 346 347 348 349 350 351 351 351 352 352 353 353 353 353 353 353 353 353 352 354 354 352 352 351 351 350 349
285 290 291 293 289 284 289 299 299 300 298 297 295 296 297 299 301 301 302 302 302 302 301 301 302 302 302 301 311 315 317 319 317 313 314 314 315 317 320 322 323 325 327 328 330 331 333 334 335 336 337 337 338 340 341 343 343 344 345 345 346 347 348 349 350 351 351 351 351 352 353 353 354 353 353 352 353 353 354 354 353 352 352 351 351 350 349
284 289 290 288 284 287 297 299 301 304 300 299 298 299 297 298 300 300 300 300 301 302 303 303 304 306 318 319 325 326 328 323 323 323 320 322 325 322 321 321 322 325 327 328 330 330 332 334 336 337 337 338 340 341 342 343 344 344 345 346 347 347 348 349 351 351 351 351 351 352 353 353 353 353 353 353 353 353 353 353 353 352 352 351 351 351 350
289 286 285 281 283 293 298 299 303 313 301 300 299 298 299 298 299 300 300 301 301 302 302 301 310 320 324 325 326 327 329 329 329 330 329 330 332 331 331 326 323 324 326 327 328 329 334 339 336 337 337 339 340 341 343 343 343 344 345 346 347 348 349 350 351 351 352 351 352 352 353 353 353 353 353 353 353 354 354 354 354 354 354 353 352 351 351
282 284 284 286 293 293 295 299 306 308 304 304 302 293 297 301 309 300 300 300 300 301 301 303 319 323 320 317 320 328 330 329 332 332 332 333 333 333 334 335 331 328 327 328 329 332 332 334 335 337 338 340 341 341 342 342 344 344 345 345 346 348 349 350 351 352 353 352 352 352 353 352 352 353 353 353 354 355 353 353 353 353 353 353 353 352 351
289 285 282 284 284 283 289 304 309 313 313 312 311 302 299 303 313 306 302 301 302 303 307 315 321 317 314 311 316 323 330 332 332 333 333 334 334 334 334 336 337 337 335 333 333 332 332 333 335 337 339 340 340 340 342 343 343 344 344 345 346 348 349 351 352 353 354 353 352 352 353 352 352 353 354 354 354 355 353 352 352 353 353 353 354 353 352
288 286 282 281 282 286 297 304 309 312 313 313 312 300 296 302 312 314 304 302 303 305 311 318 316 310 307 307 313 318 328 331 332 331 332 332 333 333 334 335 336 337 337 335 334 335 333 333 334 337 338 340 340 340 341 342 343 343 343 344 346 347 349 351 352 354 354 355 354 354 353 353 353 353 353 354 355 355 354 354 353 354 353 353 353 353 353
289 286 284 283 287 289 300 307 310 312 313 313 303 292 292 300 315 318 312 305 305 307 315 319 313 309 304 308 315 324 330 331 332 331 331 331 331 332 334 336 338 339 338 337 336 335 335 337 338 337 337 339 340 339 340 341 341 342 343 345 347 348 349 351 352 354 355 355 355 354 354 354 354 354 355 355 354 354 354 354 353 353 353 352 352 352 353
289 291 286 288 291 300 308 309 311 313 314 305 294 290 296 313 317 321 316 312 309 311 317 316 311 315 319 319 327 330 331 331 331 332 333 332 333 332 334 335 339 337 338 337 337 337 338 339 341 340 338 338 338 340 340 340 341 342 344 346 347 348 349 350 351 353 354 355 355 355 355 355 355 355 355 354 354 354 353 353 353 352 352 352 351 352 352
287 288 286 287 291 299 310 312 312 313 306 294 292 303 312 313 319 324 322 315 314 315 317 318 323 324 328 330 331 330 330 329 330 331 332 333 334 335 336 337 336 337 337 337 337 337 338 338 340 344 342 339 339 339 339 339 341 344 350 350 348 348 348 348 350 351 353 354 355 355 356 356 355 354 356 356 355 355 354 353 352 351 351 350 351 351 352
295 294 289 288 284 296 312 311 310 312 303 300 309 311 312 315 324 323 322 321 321 324 324 326 327 327 328 328 328 329 329 329 329 330 331 331 331 332 333 334 336 337 335 335 335 336 337 338 338 339 343 343 342 341 339 342 346 349 347 347 347 347 347 347 348 350 352 353 353 355 355 355 354 354 355 355 355 355 354 353 352 351 351 350 350 349 349
290 293 290 290 301 307 313 311 303 308 311 313 313 311 310 321 323 322 323 325 326 327 326 326 326 326 326 326 328 328 329 329 330 331 332 333 334 334 335 335 336 337 335 335 335 335 336 337 338 338 339 341 342 342 341 341 344 348 349 347 347 346 345 346 347 349 350 352 353 354 355 355 355 354 354 354 354 354 354 352 351 350 350 350 349 348 347
298 295 300 308 309 311 313 313 312 313 314 315 314 313 313 312 313 316 322 324 327 327 326 326 326 325 327 327 328 327 328 329 330 331 331 332 333 333 333 333 335 336 335 334 334 334 334 336 338 339 339 338 338 338 338 340 344 345 348 348 347 346 346 346 346 348 349 350 352 353 354 354 353 353 354 354 353 354 353 352 351 349 349 349 348 347 347
310 310 311 312 311 312 313 314 314 313 314 315 314 311 310 312 313 316 318 324 326 327 327 325 326 326 326 325 326 327 328 329 330 331 331 332 332 332 332 332 332 333 334 334 334 334 334 335 337 339 340 339 338 338 339 340 343 345 347 348 348 347 347 347 347 348 348 348 350 351 353 354 354 354 354 353 353 353 352 351 351 350 349 348 347 348 347
301 294 311 311 310 312 313 312 314 316 316 315 314 311 310 311 313 314 316 317 320 323 326 325 323 323 324 324 325 326 327 328 329 329 330 330 330 330 330 332 333 332 333 333 334 334 333 334 336 337 338 339 339 339 339 341 343 344 346 347 348 348 348 348 349 348 347 347 348 349 351 353 354 354 354 354 353 350 351 351 351 350 349 348 347 347 347
300 299 309 311 314 314 314 313 311 312 314 316 316 314 313 312 314 314 315 316 317 320 321 322 322 322 323 323 323 324 325 327 328 329 329 329 330 331 332 333 334 334 333 333 333 333 333 334 335 336 336 337 337 338 338 340 341 343 343 345 346 347 348 350 350 350 349 349 349 348 349 351 351 353 354 354 353 351 350 351 351 349 349 347 346 347 346
307 311 312 313 312 312 313 314 314 315 316 316 315 316 314 314 313 313 315 316 315 317 319 320 321 321 321 323 324 324 325 326 327 328 329 330 331 331 331 333 334 333 333 333 333 334 334 335 335 335 336 337 337 337 336 337 339 340 340 341 344 345 346 347 348 349 350 350 349 349 349 350 351 353 353 353 352 352 354 355 353 352 350 350 348 349 348
301 302 306 311 302 303 309 312 314 314 317 317 315 314 314 313 312 314 314 315 316 316 316 318 320 320 321 323 324 323 324 325 326 327 328 329 330 330 332 332 332 333 334 333 332 332 333 334 335 336 336 337 337 338 336 335 338 339 339 338 339 340 340 342 342 344 346 348 349 348 349 348 348 347 332 316 331 352 353 339 333 330 331 348 350 349 345
299 307 312 313 311 310 311 313 315 316 317 316 313 312 313 313 314 314 314 314 314 315 316 317 318 319 320 320 322 321 322 322 323 324 324 324 324 326 328 328 328 329 330 331 331 331 331 332 333 335 336 337 337 337 335 334 333 333 333 334 332 332 333 333 333 334 334 334 334 337 339 338 340 340 343 339 313 304 308 323 325 318 315 321 323 328 339
307 314 313 313 311 309 312 315 315 316 317 316 314 314 315 314 315 315 314 314 313 314 316 316 316 317 318 319 320 318 319 320 320 321 322 323 323 323 324 324 326 326 327 328 329 329 330 331 332 333 335 336 336 337 336 335 333 332 331 331 329 330 331 332 332 331 331 331 330 331 332 333 333 333 334 334 334 310 302 308 317 315 313 311 312 314 318
307 314 315 315 314 314 316 316 317 318 319 318 315 315 315 314 315 317 316 316 316 316 314 315 315 315 315 317 318 318 318 319 320 320 322 322 321 321 322 323 323 324 325 327 328 329 330 331 332 333 334 336 337 337 337 336 335 333 332 331 330 329 329 329 329 330 330 329 329 329 330 331 331 331 330 329 329 326 313 301 304 309 309 309 307 308 308
314 315 316 316 315 315 315 314 314 315 315 316 316 316 318 320 318 316 316 317 317 318 317 317 316 316 316 316 317 318 318 318 320 320 318 318 319 319 320 321 323 325 324 325 327 329 329 330 331 333 333 335 337 338 339 337 337 336 335 335 334 332 330 329 329 329 329 329 329 329 329 329 329 329 328 328 329 326 317 316 313 305 302 304 304 304 305
315 316 315 312 311 312 314 311 310 315 316 317 316 315 316 316 318 316 317 317 317 318 318 317 317 317 317 318 318 318 316 317 317 316 317 317 317 318 319 321 323 325 325 325 326 329 330 330 330 331 331 333 336 338 339 337 336 335 335 334 334 337 337 334 330 330 329 329 328 328 329 329 329 328 327 328 327 326 323 322 323 319 312 309 306 306 309
314 315 314 308 307 309 310 313 314 315 316 316 315 315 315 316 315 315 314 315 315 316 317 317 316 315 315 316 317 317 318 318 317 318 318 318 318 319 319 319 321 324 325 325 324 326 327 326 327 328 328 330 335 338 338 337 336 335 335 334 334 333 332 332 330 329 328 328 329 328 329 328 329 328 328 327 326 326 321 320 317 312 308 305 302 301 299
313 313 313 313 313 312 313 314 314 313 313 314 315 315 316 314 313 313 313 313 313 314 313 314 316 316 315 316 317 317 317 318 318 318 319 320 321 320 320 320 321 324 324 325 324 324 324 324 325 325 326 329 334 337 338 337 335 335 334 334 333 332 331 331 330 328 328 328 328 329 327 327 327 327 326 325 325 323 325 326 320 316 315 314 312 308 305
312 313 312 312 312 313 312 311 312 313 313 313 312 312 312 312 311 311 312 313 313 312 312 313 313 313 314 314 315 316 316 316 317 319 320 321 321 322 322 323 323 323 323 323 323 324 323 323 323 323 324 328 333 336 337 336 335 333 332 331 331 331 332 331 330 329 328 328 327 327 327 327 327 326 325 324 322 322 320 320 321 319 319 318 315 313 309
311 311 311 312 312 312 311 310 311 312 312 313 313 312 312 312 311 310 311 312 313 312 313 313 313 313 313 313 313 315 316 317 318 318 319 319 320 321 321 322 321 319 320 322 324 325 325 324 324 325 326 327 331 334 335 335 334 334 333 332 330 323 321 323 325 329 329 328 328 328 326 326 325 324 322 322 321 320 319 319 319 318 317 315 313 310 308
310 310 311 311 311 311 311 311 311 312 312 314 313 312 312 311 311 311 313 312 312 312 313 313 313 313 313 314 315 316 316 317 317 318 318 318 319 320 320 320 322 323 322 323 325 326 327 326 325 326 328 328 328 331 333 333 333 332 331 332 330 330 326 323 328 328 329 328 328 327 326 325 323 323 321 320 319 318 319 319 318 317 315 313 311 311 311
309 308 308 309 310 311 310 311 311 312 313 313 313 314 314 314 314 314 313 314 314 314 314 313 314 314 315 315 316 316 317 317 317 317 317 317 318 319 320 321 321 322 322 323 324 326 327 327 327 327 328 329 329 329 331 332 332 332 331 330 330 331 332 326 325 328 330 329 327 326 325 324 323 322 320 320 319 319 318 317 317 315 314 312 312 312 313
309 308 309 311 311 309 309 310 312 312 313 314 315 315 315 315 314 314 314 315 315 314 313 314 315 316 316 316 316 316 317 317 316 316 316 317 317 318 319 320 320 321 321 322 322 323 324 327 328 327 327 328 328 329 329 330 330 330 331 331 331 330 331 330 329 330 329 328 327 327 326 325 323 322 321 320 320 319 319 318 317 316 314 312 312 311 305
314 313 314 314 314 314 314 313 313 313 313 313 314 315 316 316 316 316 317 314 313 313 315 317 317 318 317 317 317 316 316 315 315 315 316 316 317 318 319 319 319 319 319 319 320 321 323 324 327 327 325 326 327 326 330 329 330 330 330 331 332 331 332 331 331 329 328 328 328 326 326 324 323 323 322 321 320 320 319 319 318 316 314 312 311 312 310
313 312 313 313 314 315 314 314 314 314 314 314 315 315 316 316 316 315 315 315 317 318 318 317 317 317 316 316 316 316 316 316 316 316 316 316 316 317 317 317 317 316 316 317 319 321 323 324 330 329 325 324 325 324 326 335 329 330 331 329 329 330 330 330 330 330 330 329 328 327 326 326 324 323 322 321 321 320 320 319 318 317 314 313 312 312 311
312 311 312 312 313 313 313 314 314 314 314 314 314 315 315 316 316 317 318 317 317 317 317 317 316 315 315 316 316 316 316 316 316 316 316 316 316 316 315 315 316 316 316 314 316 320 322 326 329 327 322 322 322 323 326 338 329 327 327 327 328 329 328 328 329 328 328 328 328 328 327 325 323 323 323 321 320 320 320 319 319 317 315 313 313 313 313
313 313 313 313 313 312 313 314 315 315 315 315 315 316 316 315 315 315 315 316 316 317 317 316 316 316 316 316 316 315 315 316 315 315 316 316 316 315 315 315 315 315 315 315 317 319 322 328 329 323 320 321 322 324 328 338 335 327 326 328 327 327 327 326 327 327 327 328 329 327 326 325 323 322 322 321 321 320 320 320 319 317 315 315 314 315 316
310 311 311 312 312 313 313 314 315 315 315 314 314 314 316 316 316 315 315 316 316 317 316 315 315 314 313 313 313 313 314 314 315 315 315 315 316 315 314 315 315 316 318 321 319 320 325 326 326 321 322 321 322 326 330 336 333 326 327 326 327 327 326 326 325 324 325 325 325 325 325 326 324 323 322 321 321 321 321 319 318 318 316 315 315 315 316
308 308 308 309 309 310 311 311 312 312 313 314 313 313 315 315 315 315 315 315 316 318 315 314 312 311 311 311 311 311 312 314 314 314 314 314 315 315 315 316 318 319 322 324 321 321 325 327 325 322 322 322 324 327 327 331 329 325 325 325 325 325 323 323 323 322 323 323 324 325 323 324 324 324 322 322 322 321 321 320 318 317 316 316 316 316 316
308 309 309 309 309 309 309 309 309 311 311 312 312 314 315 315 315 314 314 315 316 316 314 313 311 311 310 310 310 311 312 315 315 315 316 316 314 314 314 313 318 320 322 321 321 321 323 323 323 322 322 323 326 329 325 327 323 323 324 325 324 323 323 323 322 321 321 321 322 321 322 323 324 324 322 322 320 320 320 320 318 317 316 316 315 316 316
307 307 308 308 307 307 308 308 308 308 308 309 311 310 310 310 310 309 310 310 310 311 312 313 315 311 310 310 311 311 311 313 314 314 314 314 313 313 313 314 318 321 324 323 321 320 319 320 321 324 323 323 326 329 327 323 321 322 323 323 324 323 322 322 321 320 321 321 322 322 321 321 321 321 321 321 320 320 318 317 317 317 317 316 316 316 317
307 307 307 306 307 306 306 307 307 306 306 307 308 309 310 310 309 309 309 309 308 308 308 308 310 311 310 309 308 308 308 311 312 312 312 312 313 313 313 314 318 321 324 321 320 318 318 318 319 320 323 322 321 323 321 317 318 318 319 321 322 322 321 321 320 320 319 319 319 320 320 321 321 320 321 320 320 320 319 318 316 316 316 316 316 317 317
307 307 306 306 306 307 307 306 306 306 305 306 307 308 308 308 309 309 308 308 308 308 307 307 307 307 308 308 307 306 306 307 308 310 310 310 311 312 315 317 318 321 323 319 318 318 317 316 317 319 321 320 320 318 314 312 312 312 313 314 315 317 319 319 320 320 319 319 318 318 319 319 320 320 320 321 321 320 318 318 316 315 314 314 315 316 317
306 307 307 307 307 307 306 306 306 305 306 307 307 307 307 306 306 307 307 307 308 307 308 306 306 306 306 306 305 305 305 305 306 308 307 308 308 309 314 319 318 319 319 319 316 316 316 316 316 318 317 316 315 314 310 310 309 310 310 310 311 312 313 313 315 316 318 318 319 319 319 319 319 319 319 319 319 318 316 316 315 316 315 313 313 315 316
304 304 305 309 305 306 307 307 308 308 307 306 306 306 307 306 305 305 305 305 304 304 304 305 305 305 305 305 306 305 304 305 305 305 306 308 309 311 316 318 317 319 319 317 316 315 315 320 316 315 314 314 313 309 308 308 308 307 307 306 307 309 308 309 310 310 311 312 313 315 316 317 318 319 319 318 318 318 318 318 316 316 316 315 315 315 315
303 303 304 304 305 306 306 307 308 307 306 305 304 304 305 305 304 303 303 303 303 302 303 303 303 304 305 305 305 304 302 302 303 305 306 305 309 313 316 317 318 318 316 314 314 314 315 314 315 314 313 313 312 308 307 307 306 306 305 305 305 305 305 305 305 305 305 307 308 309 310 311 311 313 315 317 316 317 318 317 316 315 315 315 315 315 314
302 302 302 303 303 304 305 305 304 303 303 304 304 305 305 305 303 303 302 302 302 302 302 301 302 303 304 304 304 305 305 304 301 302 305 305 305 307 311 312 313 315 314 313 313 315 315 314 313 313 312 311 308 306 307 307 307 306 305 305 305 305 304 304 304 303 303 303 304 303 303 304 306 307 308 308 309 311 313 314 315 315 316 316 315 314 313
302 302 302 303 302 303 303 303 303 304 303 304 305 304 304 303 302 303 302 301 300 300 300 300 300 301 302 305 304 303 306 307 305 302 305 307 306 306 308 312 314 313 311 309 309 310 313 312 311 311 310 310 305 305 305 306 307 308 306 305 305 304 304 304 304 304 303 303 302 302 302 302 302 303 303 303 304 304 306 306 306 307 310 313 314 314 314
302 302 302 301 301 301 301 301 301 301 303 304 303 303 303 301 299 298 300 300 301 301 299 299 300 300 300 301 301 303 303 304 306 306 306 306 306 306 306 307 309 311 310 308 308 308 311 311 310 310 308 305 305 305 305 305 305 306 305 306 305 304 304 303 304 304 304 304 303 302 302 301 301 301 302 301 301 301 301 301 301 301 302 302 303 303 304
301 301 301 303 302 303 302 302 302 303 302 303 303 303 303 301 301 301 299 298 298 298 297 298 298 299 300 300 301 301 302 303 304 307 305 304 304 307 307 305 304 306 305 304 304 304 305 307 307 306 305 304 304 304 304 304 304 304 304 303 304 304 303 303 302 302 302 303 302 302 301 301 300 300 299 299 299 299 299 299 298 298 297 297 297 298 298
301 301 301 301 301 301 302 303 304 304 304 303 302 302 301 300 299 298 299 302 297 296 295 295 295 297 300 300 301 300 301 302 303 302 304 303 302 301 303 304 301 301 300 300 299 302 304 305 308 308 306 303 303 302 304 304 303 303 303 304 303 303 304 304 303 302 301 301 300 300 300 300 300 299 299 298 298 298 297 297 296 296 296 295 295 296 295
Wind_Speed
6 7 11 13 11 6 8 11 11 12 15 15 20 23 7 13 14 20 9 6 6 6 8 9 10 10 11 12 13 11 6 3 4 6 7 6 8 8 10 12 13 15 15 15 16 16 17 16 17 17 16 15 14 14 14 14 15 16 16 16 17 17 17 18 19 18 16 14 14 14 15 15 16 15 15 14 13 13 14 14 13 14 14 14 14 13 13
8 9 9 8 7 7 8 11 13 14 15 19 22 19 13 16 16 11 9 10 13 9 8 9 11 11 11 5 2 0 2 6 7 5 6 8 9 9 11 12 14 15 17 16 16 16 15 16 17 17 16 15 16 16 16 15 15 15 14 16 17 17 18 19 18 16 15 14 14 15 15 16 16 15 15 15 14 15 15 15 14 14 13 14 14 14 14
7 10 7 5 9 9 11 12 12 15 17 20 20 15 14 11 12 12 6 7 11 8 6 9 9 1 2 2 3 6 7 6 6 5 8 9 9 9 10 9 11 13 14 14 14 15 16 17 18 17 17 17 16 17 15 15 16 15 16 16 16 17 19 19 16 14 14 15 14 16 17 16 15 16 16 14 15 16 16 16 16 14 14 15 14 14 14
7 5 7 13 14 15 12 13 14 15 16 17 16 14 9 9 12 8 10 10 10 7 7 7 9 5 5 7 8 5 5 6 6 7 10 9 9 10 10 10 11 13 13 13 14 17 18 19 19 17 16 15 14 15 15 16 16 14 15 16 18 19 19 16 15 16 15 15 16 17 16 17 17 16 15 15 16 16 16 16 15 14 15 16 15 14 13
3 9 5 11 14 11 11 19 18 13 9 9 7 9 8 16 12 11 15 16 5 10 8 6 10 9 8 7 5 3 4 5 6 8 9 9 8 5 5 7 10 13 14 15 17 18 17 17 17 19 19 16 17 17 16 17 13 14 17 17 18 18 16 15 16 16 15 16 17 17 17 17 15 14 16 16 17 17 18 16 14 15 16 15 15 15 14
3 11 11 7 4 5 17 1 6 6 14 12 10 11 9 8 13 14 10 11 9 10 7 10 11 12 9 7 3 3 2 3 7 8 9 9 7 6 6 8 10 9 8 8 11 14 15 17 19 19 17 19 19 18 16 12 13 15 16 16 16 17 15 16 16 16 16 17 17 18 17 15 15 15 16 18 17 16 14 14 15 16 16 17 16 15 16
3 8 8 3 7 15 2 16 14 9 8 10 14 15 12 10 14 12 8 6 8 11 13 15 16 6 3 4 5 1 0 1 2 6 7 5 5 6 5 6 7 7 8 7 6 7 11 14 12 10 10 13 9 7 10 14 15 15 16 16 15 15 15 16 15 15 16 17 18 17 16 15 15 16 17 16 16 15 14 15 15 16 16 16 15 16 16
1 3 1 3 10 5 14 15 4 11 1 3 6 15 17 14 13 12 12 10 11 11 12 8 4 9 7 5 2 3 1 2 3 5 6 8 7 7 5 5 6 6 9 11 11 11 5 2 5 8 12 11 11 12 12 14 14 15 16 15 15 13 14 15 16 17 17 17 17 15 16 15 16 17 17 17 17 14 13 13 12 12 13 14 16 17 16
3 5 6 9 11 17 11 4 7 8 4 6 3 5 12 7 9 9 9 10 9 7 5 5 6 7 5 4 2 1 4 3 3 4 5 7 7 6 7 5 6 6 6 7 11 8 8 9 8 10 6 7 8 8 10 12 12 12 12 14 14 15 16 16 16 16 16 16 15 15 15 16 17 17 17 17 15 12 13 14 13 14 15 15 13 14 14
6 5 6 5 3 4 4 3 3 3 4 5 7 5 10 6 8 10 13 12 10 5 3 7 9 6 7 5 1 1 3 4 5 5 5 6 5 6 7 6 5 4 4 4 3 7 9 11 11 8 9 10 10 11 10 9 10 11 13 16 17 16 16 16 16 15 15 16 16 16 16 18 19 18 17 14 15 14 15 15 15 15 13 12 12 12 14
4 4 5 4 4 7 2 8 10 10 5 3 2 3 10 5 7 4 7 13 10 11 12 10 8 8 9 8 6 3 2 3 4 4 6 7 7 7 7 9 9 9 6 2 3 4 6 8 7 9 10 12 12 12 13 14 14 15 16 17 15 16 17 16 16 15 15 16 16 16 17 18 17 17 17 16 14 13 14 14 15 14 13 14 13 12 14
6 7 7 9 3 6 3 10 11 13 9 3 2 4 8 5 9 4 7 10 11 11 13 15 12 13 9 9 8 4 3 3 3 4 5 7 8 8 9 10 10 9 10 11 11 8 3 1 3 8 11 12 13 13 14 14 15 16 18 16 16 16 14 12 12 13 13 15 16 16 19 18 17 17 15 12 13 15 15 14 14 14 15 14 15 14 13
10 11 6 5 6 3 6 11 12 11 10 1 7 12 2 13 15 12 7 11 12 13 13 13 13 6 1 5 8 7 5 4 5 5 5 4 5 7 9 11 9 9 11 12 10 9 6 7 2 4 7 8 10 8 8 10 15 17 17 14 13 10 9 11 12 14 14 15 17 18 19 19 18 15 14 16 16 16 16 14 14 13 15 15 15 14 13
11 8 9 9 6 3 3 8 5 8 2 4 8 4 11 13 16 9 9 8 7 8 13 7 4 8 8 9 7 7 5 5 6 6 6 6 5 6 7 10 9 9 11 12 11 11 11 10 9 3 3 8 6 7 7 11 14 10 2 3 5 7 10 12 13 14 16 16 17 17 16 13 13 15 16 16 15 16 14 14 16 16 15 13 13 13 12
6 6 6 4 7 1 6 8 1 9 2 5 7 14 16 13 10 9 9 5 3 10 10 9 12 11 10 9 8 7 6 5 6 8 8 9 8 9 9 11 12 11 10 12 12 11 10 12 11 9 5 1 3 6 9 6 2 1 3 6 8 9 10 11 12 14 14 16 15 13 13 15 16 17 15 15 16 15 15 15 15 15 14 13 12 13 11
7 8 10 6 2 2 5 4 3 4 2 7 10 10 13 10 7 9 9 6 2 6 12 16 13 11 12 9 9 8 7 7 7 9 9 8 8 9 10 11 11 12 11 10 10 10 10 10 12 11 9 6 5 2 2 6 6 3 3 6 7 9 10 12 12 12 13 14 14 13 14 13 14 16 15 16 16 15 15 14 13 14 13 13 13 13 14
6 7 4 5 6 4 2 5 4 2 4 7 9 10 8 6 8 9 6 4 4 4 9 11 12 12 9 10 8 8 8 8 8 8 9 9 9 10 11 12 11 11 11 11 10 11 11 12 10 10 9 8 8 7 6 5 5 5 4 3 6 8 9 10 11 12 12 13 14 15 15 15 15 15 16 13 12 12 11 12 12 14 14 14 15 15 14
0 3 4 10 4 5 3 2 5 7 7 8 9 10 6 8 7 5 6 5 4 3 3 7 9 9 9 10 10 9 8 8 8 8 9 10 9 9 10 11 11 10 10 11 11 12 11 10 10 9 7 7 7 4 5 4 3 2 3 2 4 6 7 8 10 9 10 11 12 13 13 12 13 13 12 11 11 10 11 13 15 16 15 14 14 15 14
5 5 6 6 8 4 3 4 5 7 9 7 8 8 7 7 7 7 10 8 7 6 4 6 10 9 8 10 10 9 8 9 9 11 11 11 11 11 12 10 9 9 10 11 12 12 11 9 7 7 7 6 5 5 6 5 4 1 3 2 1 1 4 5 5 6 10 10 10 11 11 10 10 10 10 11 13 14 15 16 16 15 15 15 15 15 16
7 3 8 8 6 5 5 6 9 8 8 7 9 8 6 6 6 8 9 9 9 7 6 5 10 12 9 9 8 8 8 9 11 12 12 12 10 11 11 11 12 12 13 12 13 12 10 8 6 6 7 6 6 5 5 5 5 4 1 2 2 1 1 2 2 3 5 7 8 7 8 9 10 11 12 14 14 15 16 17 17 16 16 16 16 16 16
2 2 6 9 6 9 8 9 6 6 6 4 7 11 9 4 7 8 11 12 9 7 6 5 7 12 9 9 9 10 8 9 9 9 9 9 8 9 10 10 12 11 11 12 12 12 12 9 9 8 9 8 8 8 6 5 4 3 1 1 1 2 2 1 0 1 2 3 4 6 6 7 10 11 13 14 16 16 18 18 18 18 18 18 17 15 13
11 8 9 7 8 2 3 8 7 10 6 5 7 7 9 10 4 8 13 14 12 10 9 7 5 10 9 9 10 11 10 11 10 10 10 10 10 10 9 9 10 10 10 9 9 9 8 9 9 9 10 10 9 8 8 7 5 5 5 4 6 6 5 5 4 4 3 3 3 3 5 7 8 11 11 10 10 12 15 18 20 21 18 17 17 14 12
7 5 8 3 10 8 6 7 8 8 2 3 7 6 6 6 6 4 11 16 14 11 12 9 3 7 9 10 10 12 12 11 10 11 11 11 9 9 9 10 10 10 9 10 9 9 7 7 8 8 9 9 9 9 9 9 8 7 6 6 6 6 6 7 7 6 6 6 5 4 4 5 5 7 9 11 10 11 14 14 15 19 19 17 16 16 17
13 4 6 5 9 8 7 8 11 7 2 4 6 7 5 7 7 7 12 13 15 9 7 9 4 4 9 10 12 13 12 11 12 11 11 10 9 9 9 9 9 9 9 9 9 8 6 6 7 7 8 8 8 7 8 8 8 8 8 7 7 6 6 6 7 7 7 6 7 7 7 6 5 5 6 9 10 9 15 15 18 20 20 19 20 18 19
7 4 3 5 13 13 9 9 9 6 3 7 4 3 3 7 9 11 14 12 11 8 4 7 4 6 10 10 10 11 11 9 10 12 11 11 11 11 9 10 9 9 8 7 6 6 7 7 8 8 8 8 7 7 7 7 7 8 7 7 6 6 6 6 7 8 8 7 7 6 7 7 6 5 6 7 9 9 6 10 9 19 24 22 21 23 21
7 3 6 8 13 12 9 11 9 6 6 7 3 3 3 10 12 13 13 12 10 9 6 8 6 7 8 10 10 11 12 11 11 11 11 10 11 12 11 9 7 6 8 8 8 8 8 9 8 8 9 9 8 7 7 6 7 7 8 7 6 5 5 6 7 7 7 6 6 6 5 5 5 6 7 8 11 9 2 1 7 9 3 18 26 26 22
6 7 12 13 12 9 5 6 8 4 6 6 4 3 5 7 11 9 9 11 10 8 6 7 7 7 9 9 11 11 10 10 12 11 10 11 11 8 6 5 7 7 9 9 9 9 9 9 9 10 10 9 8 7 7 7 6 7 7 8 7 8 11 7 6 6 6 6 5 4 4 5 6 6 6 5 9 11 11 15 19 18 12 12 17 21 21
4 5 7 14 11 10 7 8 8 6 6 7 5 6 4 5 10 12 12 11 11 9 7 9 9 11 11 9 9 9 11 13 11 9 10 9 6 5 5 7 7 8 9 10 10 9 8 8 8 10 10 9 8 6 6 6 7 7 8 7 7 6 6 7 6 5 5 4 4 5 4 4 3 5 7 7 5 7 1 7 9 5 24 5 9 19 24
9 7 3 5 11 11 12 10 8 7 6 4 3 5 7 10 10 11 10 8 5 4 7 9 8 9 8 7 8 10 9 10 10 10 9 8 7 8 7 7 8 10 12 11 11 11 10 10 10 11 10 9 8 7 6 7 8 7 7 7 6 6 5 5 5 5 4 4 3 3 3 3 4 6 6 6 10 11 10 18 6 3 15 20 16 18 18
6 5 10 11 12 14 15 12 8 7 6 5 7 5 5 9 11 9 8 5 3 6 4 3 6 8 6 9 9 9 9 9 7 7 8 9 9 10 9 7 10 13 13 13 12 11 11 11 11 11 10 10 8 8 7 7 7 8 7 7 6 6 5 4 3 4 4 4 3 3 4 4 5 4 5 7 7 10 13 14 15 15 15 17 15 13 13
9 11 12 12 11 11 13 12 9 8 7 6 8 9 7 7 10 9 7 4 3 4 3 4 5 6 7 8 6 5 5 6 7 8 9 10 11 11 11 12 13 10 10 9 10 10 10 10 10 10 9 8 7 7 7 6 6 6 6 6 5 7 8 7 4 4 3 3 4 5 5 6 6 5 7 7 7 7 8 9 9 11 11 11 12 14 12
14 12 12 11 10 12 11 9 10 9 8 7 9 9 7 8 10 9 6 5 3 2 3 5 6 6 5 4 5 6 7 8 9 10 10 11 11 11 10 10 10 10 9 10 10 10 10 10 10 9 9 9 9 8 7 7 6 6 6 5 6 5 6 7 5 6 6 6 5 6 6 6 5 6 6 7 7 6 6 10 10 9 10 10 10 11 9
17 14 12 11 11 11 11 8 10 9 9 9 7 5 6 6 7 7 6 4 4 3 5 6 5 5 4 5 6 7 8 10 11 11 12 12 11 10 9 9 9 10 9 9 8 8 9 10 8 7 7 7 8 7 7 7 6 6 5 5 5 5 5 6 6 6 6 6 6 5 5 4 5 5 6 6 6 7 8 9 10 8 8 8 8 7 5
11 10 9 7 7 10 12 10 7 9 8 7 6 7 7 7 6 5 4 3 4 6 6 5 6 6 7 8 8 9 10 11 12 11 10 10 10 9 8 8 8 9 8 9 9 9 8 8 8 8 8 7 7 6 6 5 4 5 4 4 4 4 5 4 5 6 5 5 4 5 5 5 6 5 5 4 5 6 8 9 9 9 9 8 6 5 6
12 10 10 10 8 8 8 10 9 9 9 9 8 7 6 5 5 6 6 6 6 5 5 6 7 8 9 9 10 10 11 11 9 9 9 9 9 8 8 10 10 10 10 10 9 9 8 8 8 7 7 7 8 7 6 5 3 3 3 3 3 3 3 4 5 5 4 4 5 5 5 6 5 5 5 5 5 6 7 7 7 7 7 7 7 6 6
12 11 10 10 9 8 9 9 9 9 9 8 7 7 7 7 7 7 7 6 6 7 8 9 9 9 10 10 10 10 10 10 10 10 10 9 8 8 10 11 10 10 10 10 10 9 9 8 13 14 7 6 6 6 8 6 1 3 2 3 3 3 3 3 4 5 4 4 4 5 5 5 5 4 4 4 5 5 6 6 7 7 6 6 6 6 6
12 11 10 10 10 10 10 9 9 9 9 8 8 9 9 9 8 7 7 8 8 8 9 9 10 11 11 9 9 9 9 9 9 9 8 8 8 10 11 11 11 10 9 10 10 9 8 8 14 14 9 7 7 8 8 14 4 2 3 3 4 4 3 3 3 3 4 3 4 4 4 4 4 4 4 4 4 3 4 5 5 6 6 6 5 5 5
11 11 12 11 10 11 11 9 7 9 11 11 10 9 9 8 9 9 9 9 9 9 9 9 10 10 10 10 10 11 10 10 10 9 9 9 9 11 12 11 10 9 9 8 7 7 7 10 14 9 7 7 7 7 9 14 9 5 4 4 3 3 3 3 4 4 3 3 4 4 3 3 4 4 3 3 3 3 3 4 5 6 6 6 6 6 6
11 9 10 9 9 9 9 8 8 10 10 11 11 11 11 12 12 11 11 10 9 8 9 10 10 11 12 12 12 11 11 10 10 9 9 9 9 11 10 9 8 7 5 5 7 7 8 10 7 7 7 7 8 8 9 11 10 5 5 4 3 4 4 4 3 3 3 3 3 3 3 3 3 3 4 4 4 4 5 7 6 6 6 6 6 6 6
12 12 12 11 11 9 10 10 11 11 11 10 10 9 8 10 11 10 10 10 9 10 10 10 11 11 12 12 12 11 10 10 10 10 10 9 10 10 10 11 11 9 10 12 8 8 12 17 11 8 7 7 7 6 6 10 8 5 5 4 4 5 5 5 5 4 4 3 4 3 3 2 2 2 2 2 2 4 5 5 6 6 6 6 6 6 5
11 11 10 10 10 7 8 9 9 9 11 12 11 9 9 9 9 10 10 9 8 9 9 9 11 12 11 11 11 10 10 11 12 12 11 11 11 10 10 11 10 9 10 10 10 11 14 13 11 9 8 7 7 8 6 10 8 7 7 7 6 5 5 6 6 6 6 6 6 5 3 1 1 1 1 2 3 2 3 2 3 4 5 6 6 6 5
11 11 12 12 11 11 11 11 11 12 11 9 10 11 12 10 10 10 9 10 10 10 10 12 15 12 11 11 11 11 11 10 12 13 13 12 10 9 9 8 9 9 15 14 13 12 10 11 11 10 10 7 7 15 13 8 7 8 7 6 6 5 5 5 5 4 4 4 3 2 2 2 2 1 1 2 1 2 4 4 2 1 4 4 5 6 6
13 13 12 12 11 11 11 11 11 12 12 11 10 10 10 10 11 11 11 11 11 11 12 12 13 14 13 12 12 12 10 10 10 10 11 11 11 10 8 7 7 10 18 12 12 10 11 9 10 10 16 14 12 17 16 9 8 7 7 7 7 8 8 8 7 6 5 4 3 3 3 3 3 2 1 2 2 2 3 3 4 1 1 3 5 6 6
12 12 11 11 10 10 10 11 12 12 12 11 10 11 12 11 11 12 13 13 13 13 12 13 13 13 12 12 12 10 9 9 8 8 9 9 10 11 9 8 8 13 20 11 10 10 10 10 10 16 21 22 21 19 11 9 9 9 9 8 8 8 8 9 9 9 9 9 8 7 6 6 4 4 4 2 2 4 4 2 2 4 4 4 2 2 6
12 11 11 11 11 10 10 10 10 10 10 12 14 14 13 13 13 12 13 13 13 12 11 12 11 11 10 10 9 8 8 8 8 7 9 8 8 8 9 10 11 10 13 16 9 9 9 11 15 22 20 21 20 19 11 10 10 9 9 9 9 9 9 9 9 8 8 7 8 7 7 7 6 5 5 5 4 3 4 4 3 3 2 4 6 4 5
12 12 12 13 12 9 7 8 9 11 13 14 14 14 13 12 13 12 12 13 13 12 11 12 12 11 9 7 6 7 9 9 9 9 7 6 7 5 7 11 9 11 17 17 9 9 10 20 22 21 21 21 21 14 10 11 10 9 9 10 10 10 10 10 10 8 8 7 7 7 7 7 8 7 6 4 4 3 2 3 5 5 4 3 3 4 4
12 12 12 10 9 10 10 11 12 14 14 14 13 11 10 11 12 11 11 11 12 12 12 12 12 11 10 10 9 7 7 8 9 9 7 7 7 8 11 14 14 17 14 11 10 11 11 13 17 21 21 21 19 9 9 9 9 9 9 10 10 10 10 10 10 9 9 9 9 9 10 9 7 8 8 8 8 6 4 3 4 5 5 4 3 2 4
12 11 11 11 11 11 13 13 13 12 12 10 8 8 8 9 10 10 10 10 12 12 12 12 11 11 12 12 11 10 8 6 9 9 8 7 7 7 7 7 11 15 15 13 14 15 21 20 21 20 20 17 11 9 8 8 8 8 8 9 9 8 8 8 9 9 9 9 10 9 9 9 9 8 8 8 8 8 8 7 7 6 5 3 2 3 5
10 10 11 11 12 12 12 11 11 10 8 7 8 7 8 10 11 11 10 11 12 11 11 11 12 11 11 11 11 9 9 8 7 5 6 7 7 7 7 9 15 15 10 7 8 8 16 19 18 19 18 15 8 7 8 8 9 9 9 8 8 8 8 8 8 7 8 9 9 9 9 10 10 9 9 9 8 8 8 9 10 9 8 7 7 7 7
10 11 11 10 10 10 9 9 9 7 7 8 8 7 7 10 11 9 8 8 9 9 8 9 8 9 9 9 8 8 9 9 8 8 8 9 9 8 8 8 8 14 13 8 8 8 12 17 16 16 12 8 8 8 8 8 8 9 8 9 8 8 9 9 9 12 9 9 9 9 9 9 9 10 10 9 9 10 9 9 8 12 18 12 9 9 10
9 9 8 8 8 8 9 9 7 7 7 8 8 8 9 10 9 9 8 8 7 9 7 7 8 8 8 8 8 8 9 8 9 11 8 8 8 10 12 9 9 10 9 9 7 7 6 6 7 8 9 8 7 8 8 8 8 8 9 8 9 8 8 9 9 9 10 10 9 9 9 9 9 9 9 10 10 10 10 10 10 10 9 9 9 8 8
10 8 7 8 8 8 8 9 8 8 8 8 7 8 9 8 8 8 9 13 8 7 7 7 9 8 7 8 9 8 9 10 8 8 9 9 9 7 9 12 9 9 9 8 7 7 7 7 9 11 11 7 6 6 8 11 8 8 8 9 8 8 9 8 8 8 8 9 9 9 10 10 9 9 9 9 9 9 10 9 9 9 9 9 9 9 8
Wind_Direction
317 285 276 285 291 247 257 259 260 230 208 203 212 222 186 163 210 233 222 173 184 235 228 224 216 204 210 218 224 225 235 262 249 242 247 234 220 215 205 207 200 198 200 201 199 194 193 190 190 193 195 197 198 201 201 194 191 192 186 185 189 192 193 199 204 203 200 198 199 197 197 199 201 202 201 200 198 198 201 204 207 209 208 208 209 210 209
314 302 292 286 279 301 283 262 255 247 229 217 216 219 204 200 225 229 215 179 197 203 223 225 230 217 208 214 195 106 244 240 246 255 251 244 237 217 212 211 204 203 203 200 197 192 190 189 191 192 194 195 196 196 195 191 192 193 181 190 191 192 197 203 203 199 196 196 196 195 197 200 201 200 200 198 198 201 203 205 206 206 207 208 210 209 207
315 304 304 301 320 307 291 283 267 247 238 235 225 217 213 207 241 235 218 179 223 239 221 227 247 2 349 314 253 213 226 252 270 269 253 246 242 236 222 214 210 210 209 202 194 189 191 191 192 191 194 196 196 197 194 190 193 188 183 189 191 194 202 204 197 194 194 197 194 197 200 200 200 200 200 198 201 203 204 204 205 204 204 209 210 209 208
313 299 335 324 320 311 278 263 259 247 237 235 233 228 205 187 214 216 240 235 231 260 265 265 269 293 272 244 251 265 272 267 249 243 255 252 243 237 229 215 207 208 208 201 192 194 194 193 192 191 193 195 192 197 192 193 193 182 186 189 193 198 203 196 191 193 196 194 197 201 199 202 200 199 199 200 203 204 204 205 205 202 207 210 209 208 209
251 282 316 322 317 320 297 255 243 238 253 251 260 249 203 207 186 204 219 233 196 212 210 220 258 242 245 251 246 257 280 270 256 249 245 250 260 257 243 230 218 212 206 201 198 197 195 193 192 195 191 186 193 196 191 196 180 180 189 192 196 201 199 191 194 195 193 194 199 200 201 202 199 197 200 203 206 205 207 205 200 204 209 208 209 207 208
266 298 314 307 315 258 239 12 324 185 218 220 231 246 227 217 188 223 208 218 200 202 180 192 235 233 227 207 213 194 189 287 307 290 267 259 265 257 226 225 224 218 211 214 210 202 196 197 197 197 190 190 197 193 189 173 175 187 189 196 197 200 194 194 194 193 193 196 199 202 200 198 197 199 201 207 208 208 207 203 205 207 208 208 208 207 210
277 290 320 332 227 241 10 331 337 319 249 194 213 235 227 216 223 227 218 223 213 209 198 200 218 204 132 133 124 142 168 202 258 287 298 306 323 297 269 242 228 213 206 202 206 213 213 208 202 188 194 201 186 163 166 177 185 184 192 195 198 197 196 197 194 193 195 198 201 200 198 197 197 201 204 208 209 208 206 207 207 209 209 210 211 211 212
231 348 290 233 238 265 317 305 324 321 336 301 246 235 238 219 211 212 218 210 212 212 212 213 165 142 146 112 109 97 78 80 341 330 317 315 325 326 315 294 271 221 193 195 197 206 199 178 199 199 201 186 174 182 178 183 183 188 189 193 198 193 197 196 197 197 196 199 200 197 196 197 200 204 206 207 209 205 206 211 213 213 215 214 213 212 211
187 210 230 246 303 313 319 359 1 20 352 326 26 275 262 227 186 180 210 228 235 227 216 156 145 136 113 79 56 186 52 17 6 332 305 305 312 316 311 303 284 273 267 214 197 178 172 175 179 199 176 161 176 168 179 186 184 188 188 195 197 195 199 197 199 198 197 198 198 196 196 198 204 206 206 208 209 201 207 210 209 211 215 215 217 215 213
177 213 286 307 332 265 277 164 300 234 263 256 195 172 278 256 223 194 188 209 215 196 130 150 153 144 109 144 200 214 8 27 360 347 329 314 312 332 328 327 329 322 299 290 225 183 176 182 185 160 154 160 161 173 179 175 177 187 194 202 200 197 200 197 196 195 195 195 196 197 196 202 205 206 206 206 206 199 205 206 208 212 212 217 219 218 216
163 190 222 226 217 244 209 320 318 316 303 268 224 150 258 266 191 227 202 196 189 169 160 159 146 141 162 210 220 230 47 44 22 354 344 342 337 340 342 349 346 348 336 288 203 172 170 182 183 169 166 164 169 180 181 182 186 193 203 206 199 198 201 197 194 192 194 196 198 198 201 207 207 206 206 205 203 197 207 208 210 207 206 212 216 214 217
187 180 214 239 206 257 314 324 326 318 321 291 120 213 255 337 331 210 181 210 181 187 168 158 169 161 178 200 211 156 100 82 49 22 353 349 355 356 357 5 5 12 26 55 50 48 46 313 180 174 167 171 181 185 188 186 190 199 204 202 201 205 203 192 191 194 195 196 197 198 204 207 205 207 204 202 203 204 208 208 209 205 205 208 210 213 210
197 202 246 278 287 290 346 334 324 318 323 59 161 220 267 320 316 299 248 210 200 175 164 163 175 230 169 118 110 120 106 107 72 48 29 15 16 21 20 20 12 34 44 54 56 49 24 4 330 173 164 167 185 185 179 192 207 210 204 196 193 193 186 189 193 196 195 198 201 206 207 206 203 202 199 203 203 202 207 207 209 208 208 209 209 211 207
204 195 215 236 258 240 325 314 346 334 332 208 221 304 311 296 298 310 300 251 181 181 166 168 112 126 121 109 110 107 101 94 88 68 51 44 53 47 46 39 38 44 53 51 49 41 32 27 23 6 153 169 169 170 180 205 217 224 225 174 186 190 192 194 195 196 198 202 204 207 210 208 204 206 206 204 203 206 207 204 206 209 208 208 209 211 210
195 174 204 211 246 293 354 302 138 30 50 283 308 309 303 295 305 336 330 285 212 141 118 116 126 124 118 116 112 107 91 77 66 63 55 44 41 40 40 42 41 50 53 48 43 39 29 30 29 25 25 104 169 178 198 222 326 337 195 188 186 191 198 202 203 203 204 205 207 211 209 206 207 210 206 202 204 205 205 205 206 208 208 206 208 212 211
177 176 197 211 147 132 327 65 76 336 308 302 312 312 299 319 355 347 331 326 305 132 132 136 130 125 121 117 120 106 88 77 70 64 64 57 48 47 49 51 50 53 59 54 47 35 31 32 32 30 37 50 46 53 19 353 332 321 192 194 195 198 203 207 206 207 208 208 209 211 213 211 213 216 209 207 206 203 202 201 203 205 206 205 206 210 209
213 190 162 136 150 143 110 95 138 121 348 336 326 307 292 341 348 339 330 4 334 100 115 116 124 123 121 116 110 99 84 75 65 60 56 52 45 44 43 44 48 58 64 61 55 47 38 36 35 35 37 46 38 29 344 340 2 7 342 212 192 206 213 212 212 213 210 211 210 210 209 205 208 213 217 213 210 207 199 202 205 207 209 203 207 211 211
57 27 94 139 142 137 147 136 106 83 28 1 345 318 322 10 340 358 360 358 360 19 41 105 102 99 108 99 92 83 77 68 62 57 54 49 49 50 50 46 44 54 64 68 67 62 53 47 44 41 33 41 45 352 326 320 325 359 36 15 243 227 219 216 219 219 219 222 221 221 220 216 217 215 212 204 206 203 202 210 209 209 208 204 209 210 211
228 188 186 146 152 169 138 132 98 80 63 21 336 318 359 356 355 13 29 13 1 351 29 74 95 83 80 89 81 78 74 65 56 53 51 47 40 38 43 44 53 52 54 49 44 42 43 37 47 51 58 52 35 353 336 325 314 270 105 73 50 310 264 266 258 234 228 222 222 225 221 223 220 217 209 206 206 205 206 208 208 208 209 206 208 208 208
225 211 163 149 141 126 107 73 52 30 35 17 340 327 19 358 5 40 41 34 26 359 64 64 98 95 83 77 74 68 59 57 54 56 53 48 39 33 31 27 31 37 40 40 38 39 37 26 28 35 44 44 36 22 356 336 328 321 9 112 115 89 35 358 320 303 273 280 267 251 237 223 221 219 216 213 213 212 209 208 206 208 208 208 208 206 205
226 73 146 161 118 72 66 73 70 72 31 358 6 337 344 11 45 42 55 48 37 14 35 53 90 95 86 80 80 77 68 63 61 63 61 57 49 45 39 33 35 39 35 34 31 29 23 12 13 21 23 23 17 21 16 357 350 332 15 108 139 141 140 118 107 49 294 282 259 258 255 247 239 230 219 216 218 222 217 208 206 204 205 206 206 204 193
199 187 183 165 123 137 83 73 76 58 5 355 44 0 338 332 351 79 73 56 36 10 338 335 61 94 94 88 88 90 86 84 83 78 73 67 66 63 58 57 54 53 47 44 39 30 16 8 12 15 15 12 11 14 14 14 13 35 18 13 21 26 27 35 26 25 21 16 359 310 273 257 255 257 265 266 268 241 229 224 222 217 205 205 201 186 183
212 204 177 176 119 105 99 121 91 77 350 15 59 60 348 316 313 16 84 89 65 21 342 325 41 100 107 107 103 95 90 83 82 80 79 77 69 62 57 63 56 55 51 53 49 45 28 18 23 20 19 14 12 10 12 15 20 29 38 47 45 37 33 37 33 38 41 34 19 3 335 314 295 287 282 269 263 331 329 289 231 218 215 208 173 175 179
285 251 153 168 122 135 135 124 101 99 90 59 43 42 357 332 341 34 59 65 80 67 328 316 325 79 90 91 91 89 86 85 84 82 80 77 76 72 61 61 61 59 53 49 48 47 35 40 38 29 33 24 21 14 14 16 20 37 44 61 62 55 55 51 48 52 49 46 32 24 1 330 308 304 288 290 293 336 347 298 225 200 190 164 163 161 147
245 259 151 106 106 107 111 101 100 112 82 80 46 15 36 26 11 25 48 45 54 67 351 305 340 50 80 76 78 82 86 81 79 81 77 72 65 61 56 51 48 52 50 46 38 36 36 41 42 35 36 25 24 25 20 26 26 36 35 44 51 47 48 52 56 55 52 49 41 34 20 10 2 329 293 291 291 283 302 351 295 197 170 163 149 138 131
250 185 108 106 102 105 105 91 64 66 67 65 60 293 49 64 43 33 38 42 42 31 1 309 331 19 50 69 71 75 72 66 68 68 65 61 56 53 40 33 32 48 53 47 42 36 36 38 41 38 34 22 19 20 23 22 38 47 39 36 44 64 57 59 61 58 54 53 52 43 34 21 7 346 346 334 306 273 251 64 38 4 90 132 130 120 121
245 146 112 98 101 108 101 106 140 139 102 98 112 71 343 59 63 57 49 47 42 28 348 332 354 16 29 44 60 56 66 64 58 51 55 54 52 48 36 22 23 40 51 47 41 35 39 42 43 42 33 18 8 17 28 27 33 47 51 49 40 50 59 64 70 73 67 66 64 54 32 22 358 11 344 318 302 286 225 199 178 161 180 134 106 112 125
201 166 135 137 150 144 114 100 115 132 130 125 141 123 106 53 61 57 46 43 39 18 4 0 14 31 41 21 50 59 53 55 54 47 46 45 40 38 38 37 36 41 47 45 37 26 26 33 36 35 24 7 6 8 23 31 35 37 40 39 41 43 42 47 46 48 64 77 91 90 82 67 9 357 351 345 289 264 126 29 300 160 129 67 66 99 97
171 196 320 130 126 120 117 115 112 107 108 103 115 120 106 89 76 70 58 45 25 25 19 6 17 34 43 31 42 59 59 59 57 52 52 47 43 42 41 41 45 47 46 40 32 24 22 27 29 31 15 359 4 11 18 35 40 35 34 34 40 49 50 48 51 55 51 35 26 42 61 72 50 46 19 24 12 359 349 62 338 325 58 88 71 71 78
149 138 112 109 121 127 120 114 113 113 107 109 101 82 79 92 87 82 80 66 59 66 25 359 36 39 37 50 40 51 60 61 64 65 60 54 50 46 43 44 55 44 39 33 25 17 22 21 24 26 13 1 7 16 27 42 46 45 43 39 33 24 27 28 57 59 41 26 7 3 33 17 27 28 59 54 44 43 21 34 52 6 40 69 76 75 74
113 109 110 110 110 107 107 113 115 113 107 101 101 99 88 91 99 97 96 102 77 79 55 66 61 55 48 56 55 57 70 68 64 62 58 55 50 46 41 43 52 45 37 26 20 20 20 18 20 16 358 359 6 18 31 44 49 50 51 46 44 40 26 10 2 34 61 69 36 42 42 38 36 37 48 47 51 40 72 65 47 66 41 51 73 83 76
110 106 107 105 108 111 107 111 109 105 105 106 97 94 108 107 104 103 101 83 75 77 75 67 65 66 63 65 69 67 63 59 55 52 51 49 47 44 43 46 51 52 45 33 28 24 22 20 19 0 353 4 6 3 18 35 43 47 47 41 39 27 17 15 34 31 39 46 45 51 47 52 48 47 36 43 50 55 70 76 74 67 73 68 60 83 102
114 110 103 110 112 105 103 102 105 103 99 94 94 104 98 91 95 99 105 118 104 84 77 78 77 77 74 71 68 65 64 60 54 47 44 42 40 40 39 44 45 46 41 33 27 24 23 19 6 354 1 5 6 10 14 22 30 42 40 42 45 38 37 20 19 25 43 51 55 49 48 48 59 60 69 69 68 78 67 77 83 77 77 89 83 100 111
81 92 108 104 105 115 117 107 94 94 86 81 84 90 87 84 91 96 102 100 91 78 79 83 84 78 72 66 63 60 60 59 51 46 41 42 38 37 39 48 48 48 44 33 27 22 13 6 4 0 360 360 7 11 12 15 33 32 27 36 34 43 29 30 27 40 36 43 48 59 55 56 36 36 44 59 78 80 88 95 99 103 102 95 95 107 115
73 74 71 72 69 74 80 96 99 94 91 89 82 73 77 85 90 95 96 89 89 102 101 89 82 80 78 76 70 69 66 68 64 57 49 43 40 34 37 39 38 37 34 30 23 12 359 350 356 6 0 357 357 355 1 5 354 47 27 5 31 31 39 43 47 49 53 44 44 44 55 51 51 51 46 47 47 61 69 71 83 95 104 111 114 102 78
74 74 70 70 66 70 77 79 82 87 89 88 88 90 88 88 84 79 85 91 100 92 87 84 81 76 71 67 66 64 66 63 62 56 48 42 38 41 43 40 35 32 26 20 12 1 350 349 360 7 5 357 351 346 340 346 79 359 33 43 3 32 18 55 66 66 44 45 53 67 63 72 76 62 68 59 57 61 67 76 84 95 96 95 110 109 100
60 68 72 72 69 67 69 70 79 84 87 87 87 86 80 75 77 81 82 81 78 78 76 75 73 70 69 68 70 68 63 63 60 56 50 43 43 47 43 40 34 30 23 22 352 340 340 348 2 4 5 352 352 348 337 349 23 23 9 16 50 12 15 27 23 66 75 62 72 77 81 79 68 72 75 75 84 85 99 101 95 92 96 106 109 108 108
62 62 65 66 67 66 63 60 67 83 84 80 74 72 75 80 74 72 66 63 64 66 70 71 76 78 76 68 62 58 56 52 53 51 47 42 39 50 41 38 26 20 22 6 329 337 341 354 360 2 357 359 350 342 346 2 15 0 12 17 16 26 28 26 25 41 53 79 77 84 100 108 120 120 113 101 119 123 118 115 120 121 124 134 139 139 133
52 52 54 54 56 60 64 59 54 50 53 67 72 71 68 69 70 67 61 53 48 53 60 65 65 66 64 65 60 53 49 48 49 48 46 40 44 52 52 39 31 15 357 349 350 358 357 3 359 2 2 355 348 355 359 8 16 21 11 17 15 21 12 22 30 37 32 26 42 72 86 101 123 139 148 150 150 151 153 150 144 139 140 143 146 147 140
54 56 60 57 54 52 62 63 58 62 58 54 62 60 62 75 75 71 66 56 45 55 62 64 65 66 62 61 58 54 47 47 47 47 46 45 47 46 43 32 19 7 13 16 13 2 11 11 10 4 1 355 353 4 7 15 21 19 16 20 20 23 18 16 13 24 18 20 50 46 49 54 98 136 135 148 157 157 153 149 143 141 140 143 146 144 138
47 44 48 69 75 75 74 80 75 70 77 76 68 68 74 74 76 71 65 65 61 62 65 68 71 67 63 61 59 56 51 51 51 51 48 50 45 42 39 30 1 4 15 24 22 18 15 15 9 9 359 5 357 27 18 19 22 24 29 29 22 18 17 11 20 22 11 9 12 17 15 15 117 119 105 95 79 43 23 59 119 140 147 150 153 154 145
55 61 55 51 52 53 52 51 55 56 55 63 71 69 68 68 72 75 71 67 63 56 59 60 66 68 66 61 58 53 49 49 55 54 50 50 44 39 36 19 357 8 23 27 24 23 16 14 11 12 10 11 20 35 38 29 25 27 26 23 26 26 32 37 35 27 26 27 23 4 355 14 16 356 28 63 67 108 116 119 86 148 159 147 152 150 136
45 47 48 49 49 50 52 55 56 58 54 45 50 59 63 65 68 66 62 58 58 58 56 53 52 52 53 54 55 50 42 37 44 50 55 50 46 41 40 11 2 19 28 28 28 27 24 16 17 18 23 28 30 35 36 30 23 23 21 17 17 22 23 24 25 28 31 27 8 338 348 345 3 17 61 98 83 57 65 102 108 78 185 151 156 149 146
54 56 55 55 53 51 52 55 57 55 55 45 42 48 52 51 51 59 61 57 52 49 51 50 49 50 49 53 53 49 39 37 35 39 51 45 38 29 18 24 19 28 31 30 27 31 28 24 25 27 29 31 33 36 35 27 25 25 19 20 17 16 20 24 25 24 21 19 14 8 3 360 7 10 9 25 73 79 58 10 47 103 108 84 16 165 149
48 52 57 57 55 53 50 52 57 63 65 60 52 46 48 55 54 54 61 61 58 51 47 49 48 48 51 56 60 62 58 51 44 37 48 41 40 23 8 27 34 35 36 37 33 29 30 32 33 38 37 36 37 39 37 30 27 26 22 20 20 21 20 24 21 18 18 16 15 12 13 9 9 27 33 34 43 76 125 138 109 89 101 116 124 179 160
45 44 46 49 44 41 44 57 57 56 56 56 53 46 44 50 53 51 50 55 55 50 50 52 52 44 39 42 54 60 64 55 47 40 42 40 47 25 25 43 40 43 42 43 35 31 30 35 38 39 41 41 42 40 36 36 32 32 29 29 26 25 23 18 17 16 14 12 9 10 12 13 11 1 2 28 53 49 45 95 105 89 71 83 122 169 147
46 43 40 44 45 43 44 50 54 56 54 55 53 51 43 49 53 54 53 56 59 56 51 48 47 44 41 41 37 33 38 53 48 33 27 20 27 37 40 43 44 44 45 43 42 38 35 35 38 41 42 44 44 39 34 33 35 34 34 35 33 33 30 27 22 16 14 15 14 17 21 21 14 14 14 19 19 19 8 19 56 84 89 93 81 74 95
44 43 37 37 42 42 46 46 48 50 50 55 62 61 57 60 60 58 53 54 54 53 50 45 42 36 35 35 34 35 27 31 55 30 10 16 23 26 29 40 44 45 44 40 39 39 39 41 42 43 44 44 44 39 31 33 33 33 33 33 31 27 28 29 30 25 21 18 16 16 13 14 15 15 20 29 26 20 19 24 28 33 41 51 73 96 88
45 48 43 39 37 38 44 47 47 46 43 41 51 55 57 63 56 47 45 46 50 48 46 40 37 34 30 31 33 27 26 31 53 44 3 23 27 30 24 33 40 41 40 36 33 30 37 39 41 42 40 42 36 31 31 28 31 35 34 33 31 29 27 29 29 23 30 30 28 28 25 24 22 20 18 22 23 25 27 30 26 23 22 27 31 34 43
41 43 40 39 39 38 39 46 44 40 38 45 50 46 49 58 56 39 30 35 50 57 50 43 37 32 29 28 22 24 24 25 29 35 30 26 28 34 30 27 33 38 38 34 27 23 26 34 36 37 38 30 29 31 26 25 24 30 30 31 30 29 31 28 35 35 32 33 32 34 33 33 29 27 25 22 23 24 26 26 27 25 28 35 30 29 27
36 41 39 39 43 45 44 47 44 44 47 49 52 52 51 59 62 53 46 39 39 47 43 45 42 31 30 27 27 24 26 24 30 34 33 29 25 29 33 31 30 31 29 29 23 18 9 16 30 35 32 30 26 26 28 24 19 24 26 24 24 25 26 26 22 24 26 29 26 28 29 27 30 32 34 34 31 29 27 31 32 32 31 28 27 27 27
42 39 36 37 45 49 52 49 47 51 52 53 53 54 60 59 61 53 44 40 41 42 39 43 42 24 25 30 31 27 27 31 30 29 34 35 31 24 24 30 28 24 23 22 15 13 16 16 25 36 38 32 23 27 31 33 27 25 24 26 25 23 29 29 27 28 29 26 29 28 27 29 25 29 32 36 39 37 34 33 37 38 39 37 34 33 34